Regional Weather Roundup
Issued by NWS

Home | Current Version | Previous Version | Graphics & Text | Print | Product List | Glossary On
Versions: 1 2 3 4 5 6 7 8 9 10 11 12 13 14 15 16 17 18 19 20 21 22 23 24 25 26 27 28 29 30 31 32 33 34 35 36 37 38 39 40 41 42 43 44 45 46 47 48 49 50
000
ASUS43 KMKX 230800
RWRWI

WISCONSIN REGIONAL WEATHER ROUNDUP
NATIONAL WEATHER SERVICE MILWAUKEE/SULLIVAN WI
300 AM CDT SAT JUL 23 2016

NOTE: "FAIR" INDICATES FEW OR NO CLOUDS BELOW 12,000 FEET WITH NO
SIGNIFICANT WEATHER AND/OR OBSTRUCTIONS TO VISIBILITY.

WIZ001-002-006>008-014>016-023>028-230900-
NORTHWEST WISCONSIN

CITY           SKY/WX    TMP DP  RH WIND       PRES   REMARKS
SUPERIOR ARPT  PTCLDY    63  63  99 CALM      29.99S FOG
ASHLAND        MOCLDY    61  59  93 S5        30.00S
HAYWARD        PTCLDY    64  62  93 CALM      30.02S FOG
SIREN          PTCLDY    70  66  88 CALM      30.01R
CUMBERLAND     CLOUDY    68  66  94 CALM      30.01S
RICE LAKE      CLOUDY    66  64  96 CALM      30.02S FOG
CHETEK         CLOUDY    67  67  99 CALM      30.00F
LADYSMITH      CLOUDY    69  67  94 NE3       30.03S
EAU CLAIRE     CLEAR     66  66 100 CALM      29.97F
MENOMONIE      PTCLDY    69  67  93 CALM      29.99F
NEW RICHMOND   PTCLDY    66  65  98 CALM      29.99F
OSCEOLA        PTCLDY    66  66 100 NE3       30.01S
$$

WIZ003>005-009-010-017-018-230900-
NORTH CENTRAL WISCONSIN

CITY           SKY/WX    TMP DP  RH WIND       PRES   REMARKS
MANITOWISH WTR PTCLDY    60  60 100 CALM      30.03R FOG
ARBOR VITAE    MOCLDY    64  62  94 CALM      30.04R
WOODRUFF       MOCLDY    64  62  94 CALM      30.04R
RHINELANDER    PTCLDY    65  63  93 CALM      30.04S
EAGLE RIVER    FOG       60  60 100 CALM      30.03S VSB 3/4
LAND O LAKES   MOCLDY    57  56  99 CALM      30.05R FOG
PHILLIPS       PTCLDY    65  65 100 CALM      30.03R
TOMAHAWK       CLOUDY    62  60  95 CALM      30.04R
MEDFORD          N/A     64  64 100 CALM      30.02F FOG
MERRILL        FOG       64  64 100 CALM      30.02F VSB 1/2
$$

WIZ029-030-035-036-043>047-230900-
CENTRAL WISCONSIN

CITY           SKY/WX    TMP DP  RH WIND       PRES   REMARKS
WAUSAU         PTCLDY    70  68  93 CALM      30.00F
MOSINEE        CLEAR     68  66  94 N3        30.02S
MARSHFIELD     CLEAR     68  65  90 CALM      30.01R
STEVENS POINT  CLEAR     64  64  99 CALM      30.01S
WAUPACA        CLEAR     70  69  98 CALM      29.99S
WAUTOMA        PTCLDY    67  65  93 CALM      29.99S
WISC RAPIDS    CLOUDY    67  64  90 CALM      30.01R
CAMP DOUGLAS   FOG       63  63 100 NW1       29.99R VSB 1/2
$$

WIZ011>013-019>022-031-037>040-048>050-230900-
NORTHEAST WISCONSIN

CITY           SKY/WX    TMP DP  RH WIND       PRES   REMARKS
ANTIGO         CLOUDY    63  63  98 CALM      30.04R
SHAWANO        CLEAR     69  67  94 CALM      29.99R
OCONTO         PTCLDY   N/A N/A N/A CALM      29.96S
STURGEON BAY   CLEAR     70  68  93 CALM      29.98R
GREEN BAY      CLEAR     68  68 100 CALM      29.98R
MANITOWOC      NOT AVBL
APPLETON       CLEAR     72  63  73 NW5       29.97S
CLINTONVILLE   CLEAR     68  64  88 CALM      29.99R
OSHKOSH        CLEAR     70  66  87 CALM      29.98S
$$

WIZ032>034-041-042-053>061-230900-
SOUTHWEST WISCONSIN

CITY           SKY/WX    TMP DP  RH WIND       PRES   REMARKS
LA CROSSE      PTCLDY    77  74  90 CALM      29.96S
SPARTA         MOCLDY    66  65  99 CALM      30.00R
VIROQUA        MOCLDY    75  75 100 CALM      30.01S
BOSCOBEL       FOG       77  76  96 CALM      29.98S VSB 1/4
PRAIRIE DU CHI PTCLDY    76  74  95 CALM      29.97S FOG
PLATTEVILLE    CLEAR     76  76 100 S3        30.00F
$$

WIZ056-057-062-063-064-067-068-230900-
SOUTH CENTRAL WISCONSIN

CITY           SKY/WX    TMP DP  RH WIND       PRES   REMARKS
REEDSBURG      FOG       73  73 100 CALM      29.98S VSB 1/4
BARABOO/DELLS  FOG       73  71  94 CALM      29.99S VSB 1/2
LONE ROCK      FOG       76  75  97 CALM      29.99S VSB 1/4
MINERAL POINT  FOG       77  77 100 SE3       30.01S VSB 1/4
MADISON        FOG       75  74  96 CALM      29.98S VSB 3/4
MIDDLETON        N/A     74  74 100 CALM      30.00S VSB 1/2
WATERTOWN      PTCLDY    73  73 100 CALM      29.99S FOG
MONROE         PTCLDY    77  73  88 SW3       30.00S
JANESVILLE     CLOUDY    77  77 100 CALM      29.99S
$$

WIZ051-052-058>065-066-070>072-230900-
SOUTHEAST WISCONSIN

CITY           SKY/WX    TMP DP  RH WIND       PRES   REMARKS
MILWAUKEE      PTCLDY    76  71  85 CALM      29.98S
WAUKESHA       CLEAR     72  72 100 CALM      30.00S
MILWAUKEE/TIMM CLEAR     73  68  83 CALM      29.99S
RACINE         CLEAR     77  73  87 W3        29.99F
BURLINGTON     FOG       73  72  98 CALM      29.99S VSB 3/4
KENOSHA        CLEAR     75  74  96 CALM      29.99S
FOND DU LAC    CLEAR     71  70  96 CALM      29.98F FOG
SHEBOYGAN      CLEAR     70  68  93 CALM      29.97F
WEST BEND      CLEAR     70  70 100 CALM      29.99S
JUNEAU         FOG       72  72  99 CALM      30.00F VSB 1/4
$$

LSZ147-162-230900-
LAKE SUPERIOR

STATION/POSITION TIME  TEMP    WIND        PRES    WAVE
                       AIR SEA DIR/SP/G            HT/PER
                 (UTC) (F)     (DEG/KT/KT) (MB)    (FT/S)
W MID LAKE BUOY  0650   62 58  260/  6/  6 1014.0F   1
DEVILS ISLAND    0700   70     240/  6/  7 1015.1R
SAXON HARBOR     0700   67     200/  5/  6 1015.2
$$

LMZ867-665-643>646-230900-
LAKE MICHIGAN

STATION/POSITION TIME  TEMP    WIND        PRES    WAVE
                       AIR SEA DIR/SP/G            HT/PER
                 (UTC) (F)     (DEG/KT/KT) (MB)    (FT/S)
CHAMBERS ISLAND  0700   69     210/  4/  5 1014.2S
S GREEN BAY BUOY 0730   74 74  190/  2/  2   N/A
N MID LAKE BUOY  0650   71 68  280/  4/  6 1013.3R   1/ 5
NORTHPORT PIER   0700   75     270/  4/  7 1013.9S
KEWAUNEE LAKESHO 0700   72     300/  4/  5 1013.9F
SHEBOYGAN LAKESH 0700   71     230/  4/  4 1014.8S
PORT WASHINGTON  0700   71     280/  2/  3 1015.6
MILWAUKEE LAKESH 0710   71        CALM       N/A
S MID LAKE BUOY  0650   74 73  210/  6/  6 1014.8S   0
KENOSHA   LAKESH 0700   76     250/  1/  1 1014.9F
$$

TC  - TEMPERATURE IN CELSIUS
VSB - VISIBILITY IN STATUTE MILES
WCI - WIND CHILL INDEX
HX  - HEAT INDEX




USA.gov is the U.S. government's official web portal to all federal, state and local government web resources and services.